User: anonymous   Login
Location: Fort Wayne
(41.1310°N, 85.1290°W)
Time: 04:01:10
(UTC-05:00)
Language:

Gbstr 26 Del rocket - Orbit

View from above orbital plane
View from above orbital plane
View from above satellite
View from above satellite

Ground track
Ground track

The orbit data is extracted from the following two-line orbital elements,

1 25876U 99041E   17055.44473567  .00000171  00000-0  71803-4 0  9991
2 25876  51.7642  41.6514 0532233  59.4895 305.7473 14.03987882898783
Epoch (UTC): 24 February 2017 10:40:25
Eccentricity: 0.0532233
inclination: 51.7642°
perigee height: 494 km
apogee height: 1266 km
right ascension of ascending node: 41.6514°
argument of perigee: 59.4895°
revolutions per day: 14.03987882
mean anomaly at epoch: 305.7473°
orbit number at epoch: 89878

The dashed part of the orbit path shows where the satellite is in the earth's shadow,  

DLR